This demonstration page uses our WeatherBlox Daily Observations layout. Learn more.

Hourly Observations for February 4, 2020

Temp ( °F °C ) Dew Point ( °F °C ) Humidity (%) Winds ( mph kmh ) Pressure ( in mb ) Visibility ( mi km ) Precip ( " mm )
12:15 am 00:15 Clear 50 10 41 5 71 71 SSW 5 7 29.83 1010 10 16.0934 0 0
12:35 am 00:35 Clear 50 10 41 5 71 71 SSW 5 7 29.82 1010 10 16.0934 0 0
12:55 am 00:55 Clear 48 9 41 5 76 76 WSW 5 7 29.82 1010 10 16.0934 0 0
1:15 am 01:15 Clear 52 11 41 5 67 67 SW 3 6 29.81 1010 10 16.0934 0 0
1:35 am 01:35 Clear 54 12 39 4 58 58 S 5 7 29.81 1010 10 16.0934 0 0
1:55 am 01:55 Clear 52 11 41 5 67 67 SW 5 7 29.81 1010 10 16.0934 0 0
2:15 am 02:15 Clear 52 11 41 5 67 67 Calm 29.82 1010 10 16.0934 0 0
2:35 am 02:35 Clear 54 12 41 5 63 63 Calm 29.8 1009 10 16.0934 0 0
2:55 am 02:55 Clear 52 11 41 5 67 67 S 5 7 29.8 1009 10 16.0934 0 0
3:15 am 03:15 Clear 50 10 41 5 71 71 SSW 3 6 29.81 1009 10 16.0934 0 0
3:35 am 03:35 Partly Cloudy 52 11 41 5 67 67 S 5 7 29.8 1009 10 16.0934 0 0
3:55 am 03:55 Partly Cloudy 50 10 43 6 76 76 Calm 29.81 1009 10 16.0934 0 0
4:15 am 04:15 Clear 50 10 43 6 76 76 WSW 3 6 29.81 1009 10 16.0934 0 0
4:35 am 04:35 Clear 50 10 41 5 71 71 SSW 6 9 29.81 1009 10 16.0934 0 0
4:55 am 04:55 Clear 52 11 41 5 67 67 SW 6 9 29.81 1010 10 16.0934 0 0
5:15 am 05:15 Clear 54 12 41 5 63 63 SW 5 7 29.82 1010 10 16.0934 0 0
5:35 am 05:35 Clear 54 12 41 5 63 63 WSW 5 7 29.83 1010 10 16.0934 0 0
5:55 am 05:55 Clear 54 12 41 5 63 63 SW 6 9 29.84 1011 10 16.0934 0 0
6:15 am 06:15 Clear 55 13 39 4 55 55 SSW 6 9 29.85 1011 10 16.0934 0 0
6:35 am 06:35 Clear 55 13 39 4 55 55 Calm 29.86 1011 10 16.0934 0 0
6:55 am 06:55 Partly Cloudy 55 13 41 5 59 59 Calm 29.87 1012 10 16.0934 0 0
7:15 am 07:15 Mostly Cloudy 55 13 43 6 63 63 Calm 29.88 1012 10 16.0934 0 0
7:55 am 07:55 Cloudy 57 14 45 7 63 63 Calm 29.88 1012 10 16.0934 0 0
8:15 am 08:15 Cloudy 55 13 46 8 72 72 NW 5 7 29.88 1012 10 16.0934 0 0
8:35 am 08:35 Cloudy 57 14 48 9 72 72 S 5 7 29.89 1012 10 16.0934 0 0
8:55 am 08:55 Mostly Cloudy 55 13 46 8 72 72 SW 5 7 29.88 1012 10 16.0934 0 0
9:15 am 09:15 Partly Cloudy 55 13 48 9 77 77 Calm 29.88 1012 10 16.0934 0 0
9:35 am 09:35 Sunny 59 15 50 10 72 72 Calm 29.89 1012 10 16.0934 0 0
9:55 am 09:55 Sunny 59 15 50 10 72 72 Calm 29.89 1012 10 16.0934 0 0
10:15 am 10:15 Sunny 61 16 50 10 68 68 SSW 5 7 29.89 1012 10 16.0934 0 0
10:35 am 10:35 Partly Cloudy 61 16 50 10 68 68 S 6 9 29.89 1012 10 16.0934 0 0
10:55 am 10:55 Mostly Cloudy 61 16 50 10 68 68 S 6 9 29.88 1012 10 16.0934 0 0
11:15 am 11:15 Mostly Cloudy 61 16 48 9 63 63 S 5 7 29.86 1011 10 16.0934 0 0
11:35 am 11:35 Cloudy 61 16 48 9 63 63 S 7 11 29.86 1011 10 16.0934 0 0
11:55 am 11:55 Mostly Cloudy 63 17 46 8 56 56 S 8 13 29.85 1011 10 16.0934 0 0
12:15 pm 12:15 Mostly Cloudy 63 17 46 8 56 56 S 5 7 29.85 1011 10 16.0934 0 0
12:35 pm 12:35 Mostly Cloudy 63 17 45 7 52 52 S 5 7 29.83 1010 10 16.0934 0 0
12:55 pm 12:55 Partly Cloudy 64 18 45 7 49 49 SW 6 9 29.81 1010 10 16.0934 0 0
1:15 pm 13:15 Partly Cloudy 64 18 45 7 49 49 SSW 5 7 29.81 1010 10 16.0934 0 0
1:35 pm 13:35 Mostly Cloudy 64 18 45 7 49 49 SSW 3 6 29.81 1010 10 16.0934 0 0
1:55 pm 13:55 Mostly Cloudy 66 19 45 7 46 46 S 3 6 29.8 1009 10 16.0934 0 0
2:15 pm 14:15 Mostly Cloudy 66 19 45 7 46 46 SSE 3 6 29.79 1009 10 16.0934 0 0
2:35 pm 14:35 Mostly Cloudy 64 18 46 8 52 52 SSW 5 7 29.79 1009 10 16.0934 0 0
2:55 pm 14:55 Cloudy 64 18 46 8 52 52 S 5 7 29.78 1009 10 16.0934 0 0
3:15 pm 15:15 Cloudy 64 18 46 8 52 52 SSE 3 6 29.78 1009 10 16.0934 0 0
3:35 pm 15:35 Mostly Cloudy 64 18 46 8 52 52 S 3 6 29.77 1008 10 16.0934 0 0
3:55 pm 15:55 Partly Cloudy 64 18 48 9 56 56 S 3 6 29.78 1009 10 16.0934 0 0
4:15 pm 16:15 Mostly Cloudy 64 18 48 9 56 56 Calm 29.79 1009 10 16.0934 0 0
4:35 pm 16:35 Cloudy 64 18 48 9 56 56 Calm 29.79 1009 10 16.0934 0 0
4:55 pm 16:55 Cloudy 64 18 50 10 60 60 Calm 29.79 1009 10 16.0934 0 0
5:15 pm 17:15 Cloudy 64 18 48 9 56 56 Calm 29.79 1009 10 16.0934 0 0
5:35 pm 17:35 Cloudy 63 17 50 10 64 64 Calm 29.8 1009 10 16.0934 0 0
5:55 pm 17:55 Cloudy 63 17 50 10 64 64 Calm 29.81 1009 10 16.0934 0 0
6:15 pm 18:15 Cloudy 61 16 50 10 68 68 Calm 29.82 1010 10 16.0934 0 0
6:35 pm 18:35 Cloudy 61 16 50 10 68 68 Calm 29.81 1009 10 16.0934 0 0
6:55 pm 18:55 Cloudy 61 16 50 10 68 68 Calm 29.81 1009 10 16.0934 0 0
7:15 pm 19:15 Cloudy 61 16 50 10 68 68 Calm 29.82 1010 10 16.0934 0 0
7:35 pm 19:35 Cloudy 61 16 50 10 68 68 Calm 29.81 1009 10 16.0934 0 0
7:55 pm 19:55 Cloudy 59 15 50 10 72 72 Calm 29.8 1009 10 16.0934 0 0
8:15 pm 20:15 Cloudy 59 15 50 10 72 72 Calm 29.8 1009 10 16.0934 0 0
8:35 pm 20:35 Cloudy 57 14 50 10 77 77 Calm 29.8 1009 10 16.0934 0 0
8:55 pm 20:55 Mostly Cloudy 55 13 52 11 88 88 Calm 29.8 1009 10 16.0934 0 0
9:15 pm 21:15 Mostly Cloudy 55 13 52 11 88 88 Calm 29.8 1009 10 16.0934 0 0
9:35 pm 21:35 Mostly Cloudy 55 13 52 11 88 88 Calm 29.8 1009 10 16.0934 0 0
9:55 pm 21:55 Cloudy 55 13 52 11 88 88 Calm 29.8 1009 10 16.0934 0 0
10:15 pm 22:15 Cloudy 54 12 52 11 94 94 Calm 29.8 1009 10 16.0934 0 0
10:35 pm 22:35 Cloudy 55 13 52 11 88 88 SE 3 6 29.8 1009 10 16.0934 0 0
10:55 pm 22:55 Cloudy 55 13 52 11 88 88 ESE 7 11 29.79 1009 10 16.0934 0 0
11:15 pm 23:15 Partly Cloudy 54 12 52 11 94 94 Calm 29.8 1009 10 16.0934 0 0
11:35 pm 23:35 Mostly Cloudy 54 12 52 11 94 94 Calm 29.79 1009 10 16.0934 0 0
11:55 pm 23:55 Cloudy 54 12 52 11 94 94 Calm 29.79 1009 10 16.0934 0 0

Powered by AerisWeather